Location: Santa Cristina
(46.5667°N, 11.7167°E)
Time: 18:09:33
(UTC+00:00)

SJ 16-02 - Pass Details

Date: 21 April 2021
Orbit: 605 x 617 km, 75.0° (Epoch: 12 May)

Event Time Altitude Azimuth Distance (km) Brightness Sun altitude
Exits shadow 02:02:13 20° 293° (WNW) 1,426 3.0 -20.2°
Maximum altitude 02:02:47 21° 304° (WNW) 1,408 3.1 -20.2°
Drops below altitude 10° 02:06:09 10° 353° (N) 1,989 4.4 -19.7°
Sets 02:08:54 0° 10° (N) 2,901 5.7 -19.4°
